Date,TemperatureHighF,TemperatureAvgF,TemperatureLowF,DewpointHighF,DewpointAvgF,DewpointLowF,HumidityHigh,HumidityAvg,HumidityLow,PressureMaxIn,PressureMinIn,WindSpeedMaxMPH,WindSpeedAvgMPH,GustSpeedMaxMPH,PrecipitationSumIn
2013-3-1,32.0,25.7,21.4,7.2,3.0,-99.9,46,38,31,30.03,29.97,2,0,10,0.00
2013-3-2,23.5,20.0,18.3,6.8,2.3,0.0,48,45,43,30.00,29.97,0,0,7,0.00
2013-3-3,35.8,23.0,12.0,19.0,-7.7,-99.9,56,34,22,29.97,29.88,1,0,8,0.00
2013-3-4,38.5,25.2,7.9,17.2,-7.9,-99.9,71,33,21,30.03,29.97,1,0,10,0.24
2013-3-5,35.8,28.1,9.9,18.9,4.2,-99.9,65,44,31,30.03,29.88,2,0,12,0.00
2013-3-6,42.6,35.6,29.1,26.8,18.3,13.3,74,50,32,30.09,29.94,2,0,8,0.00
2013-3-7,43.5,33.2,21.2,20.5,6.8,-99.9,71,35,23,30.30,30.15,2,0,7,0.00
2013-3-8,47.5,35.5,23.0,19.9,14.7,9.9,66,43,30,30.39,30.30,0,0,5,0.00
2013-3-9,47.3,34.9,21.2,36.0,20.5,-99.9,81,59,38,30.27,29.97,57,1,125,0.00
2013-3-10,47.1,40.3,32.7,39.0,29.4,20.8,75,65,55,29.85,29.74,1,0,4,0.00
2013-3-11,42.1,40.2,35.6,38.5,36.3,29.5,87,86,78,29.59,29.32,2,0,8,0.00
2013-3-12,36.3,33.0,30.4,29.3,10.8,5.9,86,41,32,29.74,29.50,2,0,10,0.00
2013-3-13,36.7,29.3,21.2,11.5,-1.7,-99.9,52,28,19,30.00,29.71,3,1,12,0.00
2013-3-14,44.2,32.2,15.6,23.7,3.6,-99.9,66,34,17,30.12,29.91,1,0,9,0.00
2013-3-15,46.8,37.7,27.9,21.7,7.6,-3.3,56,31,17,29.79,29.74,2,0,10,0.00
2013-3-16,33.3,25.8,20.8,13.3,5.2,-99.9,61,43,31,29.88,29.76,2,0,12,0.00
2013-3-17,29.8,21.9,14.5,10.4,-6.5,-99.9,61,32,23,30.24,30.00,2,0,10,0.08
2013-3-18,39.6,31.6,21.6,20.8,14.0,6.3,67,49,29,30.06,29.47,0,0,8,0.04
2013-3-19,38.1,28.3,21.0,23.2,4.8,-99.9,74,39,24,29.68,29.41,4,1,18,0.00
2013-3-20,40.6,25.4,11.7,22.5,-16.4,-99.9,70,26,19,29.74,29.71,2,0,11,0.00
2013-3-21,37.6,31.0,20.8,17.8,3.2,-99.9,67,33,21,29.74,29.65,1,0,13,0.00
2013-3-22,44.1,34.9,23.7,11.3,8.0,4.5,46,33,22,29.88,29.76,2,0,10,0.08
2013-3-23,50.7,36.7,24.4,18.9,11.8,8.1,53,36,26,29.97,29.91,0,0,8,0.00
2013-3-24,38.5,32.8,21.6,29.1,13.5,7.2,79,47,30,29.94,29.71,2,0,12,0.00
2013-3-25,43.0,38.2,32.5,18.5,13.3,7.3,53,36,26,29.79,29.65,4,1,15,0.00
2013-3-26,51.1,43.3,32.5,25.0,9.3,0.9,70,26,18,29.94,29.82,48,1,125,0.00
2013-3-27,51.6,40.5,32.5,16.2,13.2,6.8,46,34,18,30.03,29.94,2,0,12,0.00
2013-3-28,54.9,43.7,29.7,19.2,14.4,7.7,54,32,19,30.12,30.06,2,0,9,0.00
2013-3-29,53.8,41.1,22.5,26.2,11.4,5.5,74,33,18,30.15,30.09,2,0,7,0.00
2013-3-30,55.4,43.6,21.6,31.5,16.3,12.0,73,37,20,30.09,29.82,1,0,6,0.00
2013-3-31,63.5,51.2,35.1,24.8,15.5,10.0,59,26,16,29.62,29.41,5,2,13,0.00